This demonstration page uses our WeatherBlox Daily Observations layout. Learn more.

Left ArrowRight Arrow

39.51506, -84.39828

Hourly Observations for September 19, 2020

Temp ( °F °C ) Dew Point ( °F °C ) Humidity (%) Winds ( mph kmh ) Pressure ( in mb ) Visibility ( mi km ) Precip ( " mm )
12:15 am 00:15 Clear 51 10.5 39 3.7 63 63 NNE 6 9 30.34 1027 10 16.0934 0 0
12:35 am 00:35 Clear 49 9.6 39 3.7 67 67 NNE 5 7 30.34 1027 10 16.0934 0 0
12:55 am 00:55 Clear 50 9.9 39 3.8 66 66 NNE 6 9 30.34 1027 10 16.0934 0 0
1:15 am 01:15 Clear 49 9.7 39 3.7 67 67 NNE 3 6 30.35 1028 10 16.0934 0 0
1:35 am 01:35 Clear 49 9.2 39 3.8 69 69 NE 3 6 30.35 1028 10 16.0934 0 0
1:55 am 01:55 Clear 48 8.8 39 3.9 72 72 NE 3 6 30.35 1028 10 16.0934 0 0
2:15 am 02:15 Clear 47 8.5 39 4 74 74 NNE 5 7 30.35 1028 10 16.0934 0 0
2:35 am 02:35 Clear 48 8.7 39 4.1 73 73 NNE 5 7 30.35 1028 10 16.0934 0 0
2:55 am 02:55 Clear 47 8.5 39 4.1 74 74 NNE 3 6 30.35 1028 10 16.0934 0 0
3:15 am 03:15 Clear 47 8.1 40 4.3 77 77 NNE 3 6 30.35 1028 10 16.0934 0 0
3:35 am 03:35 Clear 46 7.8 39 4.1 78 78 N 3 6 30.35 1028 10 16.0934 0 0
3:55 am 03:55 Clear 45 7.3 40 4.2 81 81 N 5 7 30.35 1028 10 16.0934 0 0
4:15 am 04:15 Clear 45 7.4 40 4.5 82 82 N 6 9 30.35 1028 10 16.0934 0 0
4:35 am 04:35 Clear 46 7.5 40 4.6 82 82 N 5 7 30.35 1028 10 16.0934 0 0
4:55 am 04:55 Clear 45 7 40 4.5 84 84 Calm 30.35 1028 10 16.0934 0 0
5:15 am 05:15 Clear 44 6.6 40 4.5 87 87 N 6 9 30.36 1028 10 16.0934 0 0
5:35 am 05:35 Clear 43 6.3 40 4.5 88 88 N 6 9 30.36 1028 10 16.0934 0 0
5:55 am 05:55 Clear 43 6.1 40 4.3 88 88 N 5 7 30.36 1028 10 16.0934 0 0
6:15 am 06:15 Clear 42 5.7 40 4.4 91 91 N 3 6 30.37 1028 10 16.0934 0 0
6:35 am 06:35 Clear 42 5.6 40 4.4 92 92 N 3 6 30.37 1028 10 16.0934 0 0
6:55 am 06:55 Clear 41 5 39 3.9 93 93 N 3 6 30.37 1029 10 16.0934 0 0
7:15 am 07:15 Clear 41 5 39 4 93 93 Calm 30.37 1029 10 16.0934 0 0
7:35 am 07:35 Sunny 41 5.1 40 4.3 95 95 N 3 6 30.37 1029 10 16.0934 0 0
7:55 am 07:55 Sunny 41 5.1 40 4.5 96 96 N 6 9 30.37 1029 10 16.0934 0 0
8:15 am 08:15 Sunny 44 6.5 42 5.4 93 93 N 6 9 30.38 1029 10 16.0934 0 0
8:35 am 08:35 Sunny 46 7.8 43 5.9 88 88 NNE 7 11 30.38 1029 10 16.0934 0 0
8:55 am 08:55 Sunny 48 9 43 6 82 82 NNE 7 11 30.37 1028 10 16.0934 0 0
9:15 am 09:15 Sunny 50 10.2 42 5.8 74 74 ENE 6 9 30.38 1029 10 16.0934 0 0
9:35 am 09:35 Sunny 52 11.3 42 5.5 68 68 NE 7 11 30.39 1029 10 16.0934 0 0
9:55 am 09:55 Sunny 55 12.9 37 2.9 51 51 E 10 17 30.38 1029 10 16.0934 0 0
10:15 am 10:15 Sunny 57 13.8 37 2.6 47 47 E 12 19 30.38 1029 10 16.0934 0 0
10:35 am 10:35 Sunny 58 14.7 37 2.8 45 45 E 8 13 30.39 1029 10 16.0934 0 0
10:55 am 10:55 Sunny 60 15.5 37 2.7 42 42 ENE 13 20 30.39 1029 10 16.0934 0 0
11:15 am 11:15 Sunny 60 15.5 37 2.6 42 42 ENE 12 19 30.39 1029 10 16.0934 0 0
11:35 am 11:35 Sunny 61 16 37 2.8 41 41 E 8 13 30.38 1029 10 16.0934 0 0
11:55 am 11:55 Sunny 61 16.3 36 2.2 39 39 E 12 19 30.37 1029 10 16.0934 0 0
12:15 pm 12:15 Sunny 62 16.9 37 2.6 39 39 E 9 15 30.37 1029 10 16.0934 0 0
12:35 pm 12:35 Sunny 63 17.4 35 1.8 35 35 NE 10 17 30.36 1028 10 16.0934 0 0
12:55 pm 12:55 Sunny 64 17.5 36 2.1 36 36 NNE 8 13 30.35 1028 10 16.0934 0 0
1:15 pm 13:15 Sunny 64 17.8 34 1.2 33 33 ESE 6 9 30.35 1028 10 16.0934 0 0
1:30 pm 13:30 Sunny 65 18.1 34 1.2 32 32 NE 9 15 30.35 1028 10 16.0934 0 0
1:55 pm 13:55 Sunny 66 18.8 33 0.5 29 29 E 9 15 30.34 1027 10 16.0934 0 0
2:15 pm 14:15 Sunny 66 18.9 33 0.5 29 29 ENE 8 13 30.33 1027 10 16.0934 0 0
2:35 pm 14:35 Sunny 67 19.4 31 -0.4 27 27 NE 5 7 30.32 1027 10 16.0934 0 0
2:55 pm 14:55 Sunny 67 19.3 31 -0.8 26 26 ENE 10 17 30.31 1026 10 16.0934 0 0
3:15 pm 15:15 Sunny 68 19.9 31 -0.4 26 26 ENE 5 7 30.3 1026 10 16.0934 0 0
3:35 pm 15:35 Sunny 69 20.3 31 -0.7 25 25 NE 10 17 30.29 1026 10 16.0934 0 0
3:55 pm 15:55 Sunny 69 20.6 29 -1.4 23 23 ENE 10 17 30.29 1026 10 16.0934 0 0
4:15 pm 16:15 Sunny 69 20.5 29 -1.8 22 22 E 8 13 30.28 1026 10 16.0934 0 0
4:35 pm 16:35 Sunny 69 20.5 30 -1.2 23 23 NNE 8 13 30.28 1026 10 16.0934 0 0
4:55 pm 16:55 Sunny 69 20.5 29 -1.7 22 22 NE 9 15 30.27 1025 10 16.0934 0 0
5:15 pm 17:15 Sunny 69 20.5 28 -2.4 21 21 ESE 7 11 30.27 1025 10 16.0934 0 0
5:35 pm 17:35 Sunny 69 20.3 29 -1.8 23 23 ENE 5 7 30.26 1025 10 16.0934 0 0
5:55 pm 17:55 Sunny 68 20.1 29 -1.5 23 23 ENE 9 15 30.26 1025 7 11.26538 0 0
6:15 pm 18:15 Sunny 68 20 28 -2 23 23 E 8 13 30.27 1025 10 16.0934 0 0
6:35 pm 18:35 Sunny 67 19.5 31 -0.5 26 26 ENE 12 19 30.28 1025 10 16.0934 0 0
6:55 pm 18:55 Sunny 66 18.8 31 -0.3 28 28 NE 12 19 30.28 1025 10 16.0934 0 0
7:15 pm 19:15 Sunny 64 17.7 32 -0.2 30 30 ENE 7 11 30.28 1025 10 16.0934 0 0
7:35 pm 19:35 Sunny 60 15.5 33 0.7 37 37 ENE 7 11 30.29 1026 10 16.0934 0 0
7:55 pm 19:55 Clear 59 14.9 33 0.7 38 38 E 6 9 30.29 1026 10 16.0934 0 0
8:15 pm 20:15 Clear 56 13.6 34 1 43 43 ENE 5 7 30.29 1026 10 16.0934 0 0
8:35 pm 20:35 Clear 52 11.2 39 4 61 61 N 3 6 30.3 1026 10 16.0934 0 0
8:55 pm 20:55 Clear 48 9.1 37 3 66 66 Calm 30.31 1026 10 16.0934 0 0
9:15 pm 21:15 Clear 48 9.1 39 3.7 69 69 Calm 30.32 1027 10 16.0934 0 0
9:35 pm 21:35 Clear 48 8.7 40 4.3 74 74 N 3 6 30.32 1027 10 16.0934 0 0
9:55 pm 21:55 Clear 47 8.5 39 4 74 74 N 3 6 30.33 1027 10 16.0934 0 0
10:15 pm 22:15 Clear 47 8.4 40 4.5 77 77 N 3 6 30.33 1027 10 16.0934 0 0
10:35 pm 22:35 Clear 47 8.1 39 3.9 75 75 N 5 7 30.34 1028 10 16.0934 0 0
10:55 pm 22:55 Clear 48 8.7 39 4.1 73 73 Calm 30.34 1028 10 16.0934 0 0
11:15 pm 23:15 Clear 47 8.6 39 3.7 72 72 N 5 7 30.35 1028 10 16.0934 0 0
11:35 pm 23:35 Clear 48 8.7 40 4.2 74 74 Calm 30.35 1028 10 16.0934 0 0
11:55 pm 23:55 Clear 46 7.6 39 4 78 78 Calm 30.36 1028 10 16.0934 0 0

Powered by AerisWeather